TimeEST,TemperatureF,Dew PointF,Humidity,Sea Level PressureIn,VisibilityMPH,Wind Direction,Wind SpeedMPH,Gust SpeedMPH,PrecipitationIn,Events,Conditions,WindDirDegrees,DateUTC
12:12 AM,71.6,66.2,83,30.09,10.0,SSW,12.7,21.9,N/A,,Mostly Cloudy,200,2013-12-07 05:12:00
12:19 AM,71.6,66.2,83,30.09,10.0,SSW,13.8,21.9,N/A,,Scattered Clouds,210,2013-12-07 05:19:00
12:54 AM,71.1,66.9,87,30.08,10.0,SSW,12.7,23.0,N/A,,Clear,210,2013-12-07 05:54:00
1:26 AM,71.6,66.2,83,30.08,10.0,SSW,15.0,21.9,N/A,,Mostly Cloudy,210,2013-12-07 06:26:00
1:54 AM,72.0,66.9,84,30.07,10.0,SSW,13.8,23.0,N/A,,Overcast,210,2013-12-07 06:54:00
2:54 AM,71.1,66.9,87,30.08,10.0,SSW,11.5,-,N/A,,Partly Cloudy,210,2013-12-07 07:54:00
3:54 AM,71.1,66.9,87,30.08,10.0,SW,10.4,-,N/A,,Partly Cloudy,220,2013-12-07 08:54:00
4:54 AM,71.1,66.9,87,30.08,10.0,SSW,8.1,-,N/A,,Clear,210,2013-12-07 09:54:00
5:54 AM,70.0,66.9,90,30.09,10.0,SW,8.1,-,N/A,,Clear,220,2013-12-07 10:54:00
6:54 AM,70.0,66.0,87,30.10,10.0,SSW,9.2,-,N/A,,Scattered Clouds,200,2013-12-07 11:54:00
7:54 AM,70.0,66.0,87,30.14,10.0,SW,4.6,-,N/A,,Overcast,230,2013-12-07 12:54:00
8:18 AM,69.8,66.2,88,30.16,10.0,NNW,13.8,17.3,N/A,,Overcast,330,2013-12-07 13:18:00
8:25 AM,64.4,60.8,88,30.17,10.0,NNW,17.3,24.2,0.00,Rain,Light Rain,340,2013-12-07 13:25:00
8:38 AM,59.0,55.4,88,30.19,10.0,North,19.6,26.5,0.00,Rain,Light Rain,360,2013-12-07 13:38:00
8:54 AM,57.0,54.0,89,30.22,6.0,North,13.8,21.9,0.01,Rain,Light Rain,10,2013-12-07 13:54:00
9:54 AM,51.1,48.0,89,30.27,5.0,NNE,15.0,26.5,0.05,Rain,Heavy Rain,30,2013-12-07 14:54:00
10:01 AM,51.8,46.4,82,30.26,3.0,NE,13.8,23.0,0.02,Rain,Heavy Rain,40,2013-12-07 15:01:00
10:10 AM,50.0,46.4,87,30.26,4.0,NE,16.1,-,0.04,Rain,Rain,40,2013-12-07 15:10:00
10:54 AM,48.9,45.0,86,30.30,10.0,NNE,11.5,-,0.05,Rain,Light Rain,30,2013-12-07 15:54:00
11:22 AM,48.2,44.6,87,30.30,10.0,North,13.8,-,0.00,Rain,Light Rain,10,2013-12-07 16:22:00
11:51 AM,48.2,44.6,87,30.29,10.0,NNE,10.4,-,0.00,,Overcast,20,2013-12-07 16:51:00
11:54 AM,48.0,44.1,86,30.29,10.0,NNE,12.7,-,0.00,,Overcast,20,2013-12-07 16:54:00
12:17 PM,46.4,44.6,93,30.29,10.0,NNE,13.8,20.7,0.00,,Overcast,20,2013-12-07 17:17:00
12:54 PM,46.9,44.1,90,30.28,10.0,NNE,12.7,-,0.00,,Overcast,20,2013-12-07 17:54:00
1:28 PM,46.4,42.8,87,30.30,10.0,NNE,12.7,19.6,N/A,,Overcast,20,2013-12-07 18:28:00
1:54 PM,46.9,44.1,90,30.30,10.0,NNE,10.4,-,N/A,,Overcast,20,2013-12-07 18:54:00
2:54 PM,46.9,43.0,86,30.31,10.0,NNE,11.5,-,N/A,,Overcast,20,2013-12-07 19:54:00
3:01 PM,46.4,42.8,87,30.31,10.0,NNE,9.2,-,N/A,,Overcast,30,2013-12-07 20:01:00
3:08 PM,46.4,42.8,87,30.31,10.0,NNE,13.8,19.6,N/A,,Overcast,30,2013-12-07 20:08:00
3:54 PM,46.9,42.1,83,30.32,10.0,NE,15.0,21.9,N/A,,Overcast,40,2013-12-07 20:54:00
4:01 PM,46.4,42.8,87,30.33,10.0,NNE,13.8,-,N/A,,Overcast,20,2013-12-07 21:01:00
4:54 PM,46.0,43.0,89,30.35,4.0,NNE,12.7,20.7,0.00,Rain,Light Rain,20,2013-12-07 21:54:00
5:25 PM,46.4,42.8,87,30.36,10.0,NNE,13.8,-,0.00,,Overcast,30,2013-12-07 22:25:00
5:39 PM,46.4,42.8,87,30.37,10.0,NNE,12.7,20.7,0.00,,Overcast,30,2013-12-07 22:39:00
5:54 PM,46.9,42.1,83,30.38,10.0,NNE,9.2,-,0.00,,Overcast,30,2013-12-07 22:54:00
6:20 PM,46.4,42.8,87,30.38,10.0,NNE,16.1,20.7,N/A,,Overcast,30,2013-12-07 23:20:00
6:29 PM,46.4,41.0,81,30.39,10.0,NNE,9.2,18.4,N/A,,Overcast,30,2013-12-07 23:29:00
6:40 PM,46.4,41.0,81,30.39,10.0,NNE,11.5,-,N/A,,Overcast,20,2013-12-07 23:40:00
6:54 PM,46.9,41.0,80,30.40,10.0,NNE,15.0,20.7,N/A,,Overcast,30,2013-12-07 23:54:00
7:16 PM,46.4,39.2,76,30.41,10.0,NNE,15.0,21.9,N/A,,Overcast,20,2013-12-08 00:16:00
7:54 PM,46.0,41.0,83,30.42,10.0,NNE,10.4,-,0.06,Rain,Light Rain,30,2013-12-08 00:54:00
8:54 PM,45.0,37.0,74,30.43,10.0,NNE,13.8,21.9,0.00,,Overcast,30,2013-12-08 01:54:00
9:54 PM,45.0,37.0,74,30.44,10.0,NNE,12.7,-,N/A,,Overcast,20,2013-12-08 02:54:00
10:44 PM,46.4,37.4,71,30.45,10.0,NNE,13.8,20.7,N/A,,Overcast,30,2013-12-08 03:44:00
10:54 PM,46.0,37.0,71,30.45,10.0,NNE,11.5,-,N/A,,Overcast,20,2013-12-08 03:54:00
11:54 PM,46.0,37.0,71,30.43,10.0,NNE,11.5,-,N/A,,Overcast,20,2013-12-08 04:54:00